Terminal Aerodrome Forecast
Issued by NWS

Home | Current Version | Previous Version | Text Only | Print | Product List | Glossary On
Versions: 1 2 3 4 5 6 7 8 9 10 11 12 13 14 15 16 17 18 19 20 21 22 23 24 25 26 27 28
000
FTUS45 KCYS 302057 AAA
TAFLAR
TAF AMD
KLAR 302057Z 3021/3118 18012G20KT P6SM VCTS SCT070CB
     FM310000 23014KT P6SM VCTS BKN080CB
     FM310600 23008KT P6SM VCSH BKN080=

USA.gov is the U.S. government's official web portal to all federal, state and local government web resources and services.